CZ-6A DEB, 60962

Orbit data source: Space-Track

CZ-6A DEB, 60962 is space debris in LEO originally from a launch on Tue, 06 Aug 2024 UTC launched from the Taiyaun Space Center, China (TSC). Debris objects in space refer to the collection of defunct objects orbiting the Earth. Examples of debris include non-operational satellites, rocket bodies, and fragments generated from explosions, collisions, or faulty payload assembly.

Loading next visibility...
Identifier
60962, 2024-140LM
Orbit
LEO
Country
Flag of CNCN / PRC
Related business
Manufacturer
SAST
Mission
Spacecraft
Bus & Motor
Unknown
Mass
Unknown
Launch date (UTC)
2024-08-06 (2 years ago)
Launch vehicle
Unknown
Launch site
Taiyaun Space Center, China (TSC)
Object type
Payload
Rocket body
Debris
Shape & HBR
Unknown shape, 0.1 m
Radar Cross Section
Medium (>0.1 m² and <1 m²)

Expand to show TLE details & history
Last TLE update: 14 hours ago

TLE from 14 hours ago
0 CZ-6A DEB
1 60962U 24140LM  26171.28805449  .00001699  00000-0  74648-3 0  9998
2 60962  89.0218 275.7976 0044826 146.1040 214.3031 14.22617634 94997
Epoch: 2026-06-20T06:54Z
TLE epoch observation values (Epoch: 2026-06-20T06:54:47.907Z)
Latitude
-0.00004°
Longitude
-96.40685°
Altitude
846.264 km
Speed
7.416 km/s
True Right ascension
18h 23m 11s
True Declination
0° 00' 00"
Sunlit
Object was in full shadow at epoch
Visualization orbit readout
Latitude
Unknown
Longitude
Unknown
Altitude
Unknown
Speed
Unknown
Apparent Right ascension
Unknown
Apparent Declination
Unknown
Sunlit
N/A
Visualization observer readout
Local Sidereal Time
07:21:24
Azimuth
Unknown
Elevation
Unknown
Doppler factor
Unknown
Orbital elements
Apogee altitude
845.698 km
Perigee altitude
781.224 km
Semi-major axis
7,191.598 km
Eccentricity
0.00448
Inclination
89.0218°
RAAN
275.7976°
Arg. of periapsis
146.104°
True anomaly
214.01495°
Mean anomaly
214.3031°
Eccentric anomaly
214.15889°
Mean motion
3.55881 °/min
Orbital period
101.16 mins
BSTAR
0.00074648
Loading maneuver chart data...
Computing Atmospheric mass density...
Loading historical data...
Loading historical data...
Loading historical data...
Loading historical data...
Loading historical data...
Loading historical data...
Loading historical data...

Documentation

Showing up to 5 results
|